Observations for Trim Patrick St
| Time | AQI | Temp °C | Hum % | Pres Pa | CO μg/m³ | H₂S μg/m³ | NO μg/m³ | NO₂ μg/m³ | O₃ μg/m³ | SO₂ μg/m³ | PM1 μg/m³ | PM2.5 μg/m³ | PM10 μg/m³ |
|---|---|---|---|---|---|---|---|---|---|---|---|---|---|
| Thursday 27 August 2026 | |||||||||||||
| 14:06 | 3 | 20.5 | 77 | 38,460 | 0.02 | 0 | 2.65 | 8.51 | 43.86 | 2.03 | 16.57 | 23.79 | 26.17 |
| 14:05 | 3 | 20.6 | 77 | 38,460 | 0.02 | 0 | 3.53 | 7.16 | 48.04 | 2.74 | 18.29 | 25.2 | 27.71 |
| 14:04 | 3 | 20.5 | 77 | 38,460 | 0.04 | 0 | 6.95 | 11.79 | 39.7 | 2.05 | 18.29 | 23.78 | 26.16 |
| 14:03 | 3 | 20.5 | 77 | 38,460 | 0.02 | 0 | 6.1 | 9.8 | 38.92 | 1.44 | 16.57 | 24.49 | 26.94 |
| 14:02 | 3 | 20.5 | 77 | 38,460 | 0.06 | 0 | 5.3 | 14.62 | 36.19 | 1.89 | 18.29 | 26.56 | 29.21 |
| 14:01 | 3 | 20.5 | 77 | 38,460 | 0.1 | 1.14 | 4.24 | 31.35 | 28.81 | 2.56 | 18.29 | 25.17 | 27.69 |
| 14:00 | 3 | 20.5 | 77 | 38,460 | 0.07 | 0.56 | 2.97 | 20.28 | 28.65 | 3.63 | 19.14 | 25.16 | 27.67 |
| 13:59 | 3 | 20.5 | 77 | 38,460 | 0.16 | 2.8 | 1.73 | 18.28 | 35.2 | 1.92 | 18.29 | 23.73 | 26.11 |
| 13:58 | 3 | 20.5 | 77 | 38,460 | 0.44 | 5.46 | 2.15 | 33.46 | 29.04 | 3.27 | 16.57 | 23.76 | 26.13 |
| 13:57 | 3 | 20.5 | 77 | 38,460 | 0.32 | 1.2 | 1.62 | 15.21 | 32.89 | 2.35 | 18.29 | 25.18 | 27.7 |
| 13:56 | 3 | 20.5 | 77 | 38,460 | 0.03 | 0 | 1.6 | 8.81 | 41.52 | 2.44 | 15.71 | 23.05 | 25.36 |
| 13:55 | 3 | 20.4 | 77 | 38,460 | 0.05 | 0 | 1.37 | 11.7 | 36.44 | 1.79 | 17.43 | 26.58 | 29.24 |
| 13:54 | 3 | 20.4 | 77 | 38,460 | 0.06 | 0 | 1.33 | 8.8 | 43.23 | 2.23 | 15.71 | 23.04 | 25.34 |
| 13:53 | 3 | 20.4 | 78 | 38,460 | 0.08 | 0 | 1.54 | 8 | 45.99 | 2.45 | 16.57 | 21.61 | 23.77 |
| 13:52 | 3 | 20.4 | 77 | 38,460 | 0.22 | 0 | 2 | 10.72 | 34.19 | 1.8 | 19.14 | 27.29 | 30.02 |
| 13:51 | 3 | 20.4 | 77 | 38,460 | 0.15 | 0 | 2.12 | 13.17 | 38.02 | 1.11 | 20 | 27.26 | 29.99 |
| 13:50 | 3 | 20.5 | 78 | 38,460 | 0.08 | 0 | 2.2 | 12.46 | 38.27 | 2.4 | 17.43 | 24.39 | 26.83 |
| 13:49 | 3 | 20.4 | 78 | 38,460 | 0.1 | 0 | 1.97 | 14.46 | 32.2 | 1.43 | 19.14 | 27.21 | 29.93 |
| 13:48 | 3 | 20.4 | 78 | 38,460 | 0.14 | 0 | 2.03 | 13.55 | 40.13 | 2.14 | 18.29 | 25.1 | 27.61 |
| 13:47 | 3 | 20.4 | 78 | 38,460 | 0.07 | 0 | 1.32 | 8.76 | 42.01 | 2.34 | 16.57 | 23.7 | 26.07 |